Regional Weather Roundup
Issued by NWS

Home | Current Version | Previous Version | Graphics & Text | Print | Product List | Glossary On
Versions: 1 2 3 4 5 6 7 8 9 10 11 12 13 14 15 16 17 18 19 20 21 22 23 24 25 26 27 28 29 30 31 32 33 34 35 36 37 38 39 40 41 42 43 44 45 46 47 48 49 50
000
ASUS45 KBOI 282010
RWRID

IDAHO REGIONAL WEATHER ROUNDUP
NATIONAL WEATHER SERVICE BOISE ID
200 PM MDT FRI AUG 28 2015

NOTE: "FAIR" INDICATES FEW OR NO CLOUDS BELOW 12000 FEET
WITH NO SIGNIFICANT WEATHER AND/OR OBSTRUCTIONS TO VISIBILITY

IDZ012-014-282100-
SOUTHWEST IDAHO


CITY           SKY/WX    TMP DP  RH WIND       PRES   REMARKS
BOISE          MOSUNNY   89  38  16 N8        29.99F
CALDWELL         N/A     88  45  22 NE6       29.99F
MOUNTAIN HOME  MOSUNNY   91  37  15 NE5       29.98F
$$

IDZ016-017-282100-
SOUTHCENTRAL IDAHO


CITY           SKY/WX    TMP DP  RH WIND       PRES   REMARKS
JEROME         MOSUNNY   94  39  14 NE5       30.07F HX  90
TWIN FALLS     PTSUNNY   89  48  24 NE9       30.07F
$$

IDZ019>023-282100-
SOUTHEAST IDAHO


CITY           SKY/WX    TMP DP  RH WIND       PRES   REMARKS
IDAHO FALLS    MOSUNNY   84  41  21 SW7       30.17F
POCATELLO      MOSUNNY   91  41  17 VRB6      30.13F
REXBURG        MOSUNNY   83  38  20 W5        30.18F
$$

IDZ006-010-011-018-031-032-282100-
CENTRAL IDAHO MOUNTAINS


CITY           SKY/WX    TMP DP  RH WIND       PRES   REMARKS
MCCALL           N/A     79  35  20 S12       30.12F
HAILEY         PTSUNNY   81  46  30 SE12      30.20F
STANLEY          N/A     83  32  16 VRB7G23   30.23F
SALMON         CLOUDY    77  39  25 N3        30.06F
CHALLIS        PTSUNNY   81  36  19 NE5       30.12F
$$

IDZ002-004-006-007-026-282100-
NORTHERN IDAHO


CITY           SKY/WX    TMP DP  RH WIND       PRES   REMARKS
LEWISTON       CLOUDY    81  43  26 CALM      29.97S HAZE
LOWELL           N/A     74  52  46 N3        29.98F
COEUR D`ALENE  CLOUDY    77  46  33 SE6       30.00R
MULLAN PASS    CLOUDY    63  38  39 N6        30.18R HAZE
$$


USA.gov is the U.S. government's official web portal to all federal, state and local government web resources and services.